Home   Weather   33°37'N, 91°24'W   Past weeks
Flag for USA

Past Weather in 33°37'N, 91°24'W, USA — Yesterday and Last 2 Weeks

Now
28 °F

Overcast.


Feels Like: 19 °F
Forecast: 38 / 23 °F
Wind: 10 mph from East

Location: Adams Field

Current Time: Jan 21, 2020 at 11:03:16 am

Latest Report: Jan 21, 2020 at 9:53 am


Visibility: 10 mi

Pressure: 30.68 "Hg

Humidity: 72%

Dew Point: 20 °F

Location of 33°37'N, 91°24'WLocation

Past Weather in 33°37'N, 91°24'W — Graph

°F

33°37'N, 91°24'W Temperature Yesterday

Maximum temperature yesterday: 40 °F (at 2:53 pm)
Minimum temperature yesterday: 23 °F (at 6:53 am)
Average temperature yesterday: 30 °F

High & Low Weather Summary for the Past Weeks

 TemperatureHumidityPressure
High68 °F (Jan 10, 11:42 pm)100% (Jan 13, 5:53 am)30.68 "Hg (Jan 13, 5:53 am)
Low23 °F (Jan 20, 6:53 am)22% (Jan 7, 1:53 pm)29.65 "Hg (Jan 10, 11:53 pm)
Average47 °F78%30.23 "Hg
* Reported Jan 6 9:53 am — Jan 21 9:53 am, 33°37'N, 91°24'W. Weather by CustomWeather, © 2020

Note: Actual official high and low records may vary slightly from our data, if they occured in-between our weather recording intervals... More about our weather records

33°37'N, 91°24'W Weather History for the Previous 24 Hours

Scroll right to see more
 ConditionsComfort  
Time TempWeatherWind HumidityBarometerVisibility
9:53 am
Tue, Jan 21
28 °FOvercast.10 mph72%30.68 "Hg10 mi
8:53 am27 °FOvercast.10 mph75%30.68 "Hg10 mi
7:53 am27 °FOvercast.10 mph75%30.66 "Hg10 mi
6:53 am27 °FOvercast.13 mph75%30.65 "Hg10 mi
5:53 am27 °FOvercast.12 mph75%30.65 "Hg10 mi
4:53 am27 °FOvercast.9 mph75%30.65 "Hg10 mi
3:53 am27 °FOvercast.9 mph78%30.64 "Hg10 mi
2:53 am25 °FPassing clouds.9 mph81%30.64 "Hg10 mi
1:53 am25 °FPassing clouds.7 mph85%30.63 "Hg10 mi
1:42 am25 °FPassing clouds.7 mph85%30.62 "Hg10 mi
12:53 am24 °FClear.7 mph84%30.62 "Hg10 mi
11:53 pm
Mon, Jan 20
25 °FPassing clouds.8 mph81%30.62 "Hg10 mi
10:53 pm26 °FPassing clouds.7 mph77%30.61 "Hg10 mi
9:53 pm28 °FPassing clouds.12 mph72%30.60 "Hg10 mi
8:53 pm27 °FPassing clouds.9 mph75%30.59 "Hg10 mi
7:53 pm31 °FPassing clouds.12 mph67%30.58 "Hg10 mi
6:53 pm31 °FPassing clouds.8 mph64%30.56 "Hg10 mi
5:53 pm32 °FClear.7 mph59%30.55 "Hg10 mi
4:53 pm37 °FPassing clouds.7 mph46%30.55 "Hg10 mi
3:53 pm39 °FPassing clouds.3 mph38%30.56 "Hg10 mi
2:53 pm40 °FPassing clouds.5 mph35%30.56 "Hg10 mi
1:53 pm39 °FPassing clouds.3 mph36%30.57 "Hg10 mi
12:53 pm38 °FPassing clouds.7 mph39%30.60 "Hg10 mi
11:53 am35 °FPassing clouds.6 mph40%30.64 "Hg10 mi
Weather by CustomWeather, © 2020

See weather overview

Advertising